[[{"header":{"parameterUnit":"m.s-1","parameterCategory":1,"la1":30.2991,"la2":30.254,"lo1":-89.0895,"lo2":-89.0444,"dy":0.0017,"dx":0.0017,"nx":28,"ny":28,"refTime":"2023-08-04T21:00:00:Z","depth":0,"parameterNumber":2,"parameterNumberName":"U-component_of_WINDS"},"data":[0,0,0,0,0,0,0,0,0,0,0,0,0,0,0,0,0,0,0,0,0,0,0,0,0,0,0,0,0,0,0,0,0,0,0,0,0,0,0,0,0,0,0,0,0,0,0,0,0,0,0,0,0,0,0,0,0,0,2.8142,2.8142,0,2.8219,2.8219,2.822,2.8166,2.8164,2.8161,2.8159,2.8238,2.8243,2.8247,0,0,0,0,0,0,0,0,0,0,0,0,0,2.7946,2.795,2.8141,2.8142,2.8143,2.8218,2.8219,2.822,2.8166,2.8163,2.816,2.8158,2.8237,2.8242,2.8247,0,0,0,0,0,0,0,0,0,0,0,0,0,2.8028,2.7951,2.8141,2.8125,2.8125,2.8218,2.8219,2.8221,2.8167,2.8163,2.816,2.8156,2.8235,2.8242,2.8248,2.8362,0,0,2.8268,2.8271,0,0,0,0,0,0,0,0,2.8023,2.8035,2.8127,2.8127,2.8126,2.8179,2.8179,2.8268,2.8168,2.8151,2.8159,2.8155,2.8222,2.8229,2.8252,2.8365,2.8369,2.8269,2.8273,2.8276,2.8277,0,0,0,0,0,0,0,2.8017,2.8031,2.8172,2.8128,2.8128,2.8114,2.8121,2.8196,2.8206,2.8152,2.8148,2.8158,2.8221,2.8245,2.8253,2.837,2.8269,2.8274,2.8279,2.8281,2.8577,2.8581,0,0,0,0,0,0,2.8013,2.8027,2.8169,2.8174,2.8064,2.812,2.8129,2.8166,2.8205,2.8207,2.8161,2.8155,2.8236,2.8245,2.8256,2.8389,2.8276,2.8282,2.8285,2.8573,2.8578,2.8582,0,0,0,0,0,0,2.8009,2.8026,2.8166,2.81,2.8116,2.8128,2.8169,2.8169,2.8194,2.8212,2.8213,2.8185,2.8233,2.8246,2.8335,2.8391,2.8285,2.8291,2.8568,2.8574,2.858,2.8657,0,0,0,0,0,0,2.8004,2.8025,2.8069,2.8101,2.812,2.8245,2.8173,2.8173,2.8205,2.8198,2.8234,2.8237,2.8232,2.8325,2.8341,2.8398,2.8296,2.8563,2.8571,2.8578,2.8649,2.8665,2.8678,0,0,0,0,0,2.7997,2.8089,2.8072,2.8089,2.8175,2.8248,2.8259,2.8251,2.821,2.8253,2.8264,2.8235,2.8382,2.8335,2.8352,2.8412,2.856,2.8569,2.8577,2.8643,2.8662,2.8677,0,0,0,0,0,0,2.8065,2.8093,2.8074,2.8179,2.8212,2.8239,2.8294,2.8272,2.8317,2.8309,2.8297,2.8306,2.8398,2.8414,2.8361,2.8522,2.8464,2.8477,2.8508,2.8526,2.854,2.8534,2.8301,0,0,0,0,0,2.8091,2.8149,2.817,2.8261,2.8278,2.8283,2.8315,2.8306,2.8339,2.8353,2.837,2.8404,2.8457,2.8492,2.8543,2.8651,2.8657,2.8701,2.8715,2.8726,2.8737,2.8793,2.8812,2.8611,2.8611,2.8611,0,0,2.8148,2.817,2.8208,2.8275,2.8299,2.8357,2.8295,2.8361,2.8404,2.8363,2.8447,2.8461,2.8497,2.8595,2.8639,2.8611,2.8794,2.8738,2.8747,2.8751,2.8804,2.8823,2.884,2.8617,2.8616,2.8615,0,0,2.828,2.8304,2.8381,2.8405,2.8442,2.8445,2.8463,2.8493,2.8501,2.8585,2.8554,2.8605,2.8698,2.8724,2.8749,2.8888,2.8862,2.8905,2.8979,2.9033,2.9049,2.9063,2.9111,2.9128,2.8916,2.8916,2.8916,0,2.8346,2.8434,2.8423,2.849,2.8519,2.8483,2.856,2.8584,2.8636,2.8657,2.8624,2.8737,2.876,2.8862,2.8896,2.8918,2.8937,2.8901,2.9048,2.9062,2.9074,2.912,2.9138,2.8921,2.892,2.892,2.892,0,2.8511,2.8572,2.8629,2.8679,2.8714,2.8786,2.8785,2.8822,2.8809,2.8815,2.8899,2.8924,2.8977,2.9001,2.899,2.9101,2.9082,2.9049,2.8991,2.9099,2.9141,2.9158,2.8928,2.8926,2.8925,2.8924,0,0,2.869,2.873,2.8751,2.8772,2.8808,2.8855,2.8924,2.8975,2.9006,2.9042,2.9098,2.9176,2.9145,2.9174,2.9165,2.9213,2.9318,2.9173,2.9174,2.9198,2.9439,2.9463,2.9483,2.9301,2.9305,2.9307,2.9436,0,2.8823,2.8942,2.8933,2.9046,2.91,2.9066,2.9125,2.9154,2.916,2.9207,2.9214,2.9268,2.9224,2.924,2.9286,2.9296,2.9366,2.9287,2.9352,2.9355,2.9343,2.9506,2.9532,2.9652,2.9452,2.9455,2.9457,0,2.8994,2.9035,2.9152,2.9178,2.92,2.9254,2.9298,2.9344,2.9375,2.9376,2.9407,2.9389,2.9456,2.9397,2.9489,2.9435,2.9461,2.9469,2.9473,2.9478,2.9412,2.9514,2.969,2.9708,2.9483,2.9481,2.9479,0,2.911,2.9194,2.9274,2.9293,2.9326,2.9364,2.9379,2.9406,2.9436,2.9475,2.9494,2.9541,2.9566,2.9602,2.9597,2.9554,2.969,2.963,2.9691,2.9691,2.9721,2.9719,2.9902,2.974,2.974,2.9739,2.9739,0,2.9259,2.9332,2.9326,2.9376,2.9456,2.9444,2.9523,2.9533,2.9557,2.9607,2.958,2.9628,2.9618,2.9665,2.9661,2.9736,2.9749,2.975,2.9748,2.9752,2.9752,2.9768,2.9759,2.9744,2.9743,2.9742,2.9741,0,2.9402,2.9401,2.9486,2.9509,2.9516,2.9574,2.9593,2.9639,2.9642,2.9705,2.9719,2.9725,2.9778,2.9776,2.9837,2.9834,2.9926,2.9915,2.9916,2.9913,2.9973,2.9967,3.0173,3.0198,3.0021,3.0023,3.0024,0,2.9496,2.9551,2.9579,2.961,2.9627,2.9678,2.9708,2.9698,2.973,2.9767,2.9808,2.9859,2.9899,2.9985,2.9994,3.004,3.0029,3.0098,3.0036,3.0037,3.0027,3.0024,3.0028,3.011,3.0112,3.0113,3.0115,0,2.9663,2.9659,2.9703,2.9747,2.9784,2.9818,2.9849,2.9876,2.9869,2.9906,2.996,2.9991,3.0051,3.0101,3.0145,3.0159,3.0136,3.0134,3.015,3.0154,3.0151,3.0152,2.9947,3.013,3.0128,3.0127,3.0126,3.0126,2.9783,2.9829,2.9855,2.9904,2.9926,2.9955,2.9999,3.0006,3.0051,3.0099,3.009,3.015,3.0176,3.0231,3.025,3.0295,3.0271,3.0295,3.0301,3.0306,3.0312,3.0145,3.0304,3.0303,3.0303,3.0302,3.0302,0,2.9947,2.9961,3.0007,3.005,3.0088,3.0062,3.0094,3.0128,3.0181,3.0207,3.0246,3.0306,3.0354,3.0365,3.041,3.0445,3.0435,3.0457,3.0453,3.0457,3.0333,3.0313,3.0464,3.0464,3.0464,3.0464,3.0464,3.0464,3.0036,3.0112,3.0111,3.0196,3.0209,3.0267,3.0287,3.0313,3.0334,3.0402,3.0441,3.0448,3.0468,3.0513,3.0555,3.0557,3.0574,3.0601,3.0598,3.0482,3.0466,3.045,3.0432,3.0605,3.0605,3.0718,3.0719,3.072]},{"header":{"parameterUnit":"m.s-1","parameterCategory":1,"la1":30.2991,"la2":30.254,"lo1":-89.0895,"lo2":-89.0444,"dy":0.0017,"dx":0.0017,"nx":28,"ny":28,"refTime":"2023-08-04T21:00:00:Z","depth":0,"parameterNumber":3,"parameterNumberName":"V-component_of_WINDS"},"data":[0,0,0,0,0,0,0,0,0,0,0,0,0,0,0,0,0,0,0,0,0,0,0,0,0,0,0,0,0,0,0,0,0,0,0,0,0,0,0,0,0,0,0,0,0,0,0,0,0,0,0,0,0,0,0,0,0,0,5.2783,5.2783,0,5.2827,5.2827,5.2828,5.2764,5.2762,5.276,5.2758,5.2797,5.28,5.2803,0,0,0,0,0,0,0,0,0,0,0,0,0,5.2638,5.2642,5.2783,5.2783,5.2784,5.2827,5.2827,5.2828,5.2765,5.2762,5.2759,5.2757,5.2796,5.28,5.2803,0,0,0,0,0,0,0,0,0,0,0,0,0,5.2694,5.2642,5.2783,5.2758,5.2756,5.2826,5.2827,5.2828,5.2765,5.2762,5.2758,5.2755,5.2795,5.2799,5.2804,5.2899,0,0,5.2818,5.282,0,0,0,0,0,0,0,0,5.269,5.2699,5.2761,5.276,5.2758,5.2787,5.2791,5.2852,5.2766,5.2761,5.2758,5.2754,5.2796,5.28,5.2816,5.2901,5.2903,5.2819,5.2821,5.2823,5.2825,0,0,0,0,0,0,0,5.2687,5.2697,5.28,5.2762,5.276,5.2742,5.2746,5.2802,5.2797,5.2762,5.2757,5.2763,5.2794,5.2811,5.2816,5.2903,5.2818,5.2823,5.2826,5.2827,5.3067,5.307,0,0,0,0,0,0,5.2687,5.2694,5.2799,5.2801,5.2715,5.2748,5.2752,5.2781,5.2796,5.2795,5.2766,5.276,5.2805,5.2811,5.2817,5.2928,5.2823,5.2828,5.283,5.3063,5.3068,5.3071,0,0,0,0,0,0,5.2684,5.2697,5.2797,5.2746,5.2758,5.2754,5.2786,5.2783,5.28,5.2799,5.2798,5.2785,5.2802,5.2811,5.2879,5.2929,5.283,5.2834,5.3059,5.3065,5.307,5.3152,0,0,0,0,0,0,5.268,5.2696,5.2734,5.2748,5.2761,5.286,5.2789,5.2786,5.2809,5.2802,5.2816,5.2816,5.28,5.2873,5.2884,5.2933,5.2838,5.3055,5.3062,5.3068,5.3145,5.3159,5.3172,0,0,0,0,0,5.2675,5.2755,5.2736,5.2749,5.2808,5.2863,5.287,5.2853,5.2813,5.285,5.2849,5.2815,5.2922,5.288,5.2892,5.2944,5.3051,5.306,5.3067,5.3138,5.3156,5.3172,0,0,0,0,0,0,5.2745,5.2756,5.2736,5.2822,5.2843,5.2853,5.2898,5.2873,5.2903,5.2895,5.287,5.2874,5.2947,5.2952,5.2906,5.3036,5.298,5.299,5.303,5.3047,5.306,5.3056,5.2842,0,0,0,0,0,5.2771,5.2817,5.2823,5.2899,5.291,5.2903,5.2926,5.2911,5.293,5.2938,5.2942,5.296,5.2997,5.3023,5.3057,5.3146,5.3146,5.3187,5.32,5.3212,5.3221,5.3266,5.3283,5.3098,5.3098,5.3098,0,0,5.2824,5.2835,5.2866,5.2913,5.2927,5.2972,5.291,5.2961,5.2994,5.2945,5.301,5.3014,5.3032,5.3111,5.3146,5.3117,5.3272,5.3222,5.3231,5.3234,5.3276,5.3293,5.3309,5.3103,5.3102,5.3101,0,0,5.2943,5.2958,5.3022,5.3037,5.3059,5.3054,5.3069,5.3083,5.3084,5.315,5.3113,5.3151,5.3216,5.3231,5.3246,5.3371,5.334,5.3383,5.3453,5.3497,5.3512,5.3525,5.3567,5.3583,5.3392,5.3392,5.3392,0,5.3006,5.3075,5.3057,5.3111,5.3132,5.3091,5.3154,5.3169,5.3201,5.3215,5.3184,5.3264,5.3274,5.3354,5.3385,5.34,5.3414,5.338,5.3512,5.3524,5.3536,5.3576,5.3592,5.3397,5.3397,5.3396,5.3396,0,5.315,5.3198,5.3247,5.328,5.3306,5.3364,5.3353,5.3382,5.3364,5.3362,5.3427,5.3438,5.3473,5.3491,5.3474,5.3569,5.355,5.3516,5.3459,5.3559,5.3596,5.3611,5.3404,5.3403,5.3401,5.34,0,0,5.3314,5.3336,5.3354,5.3368,5.3389,5.3425,5.3481,5.3516,5.354,5.3564,5.3608,5.3664,5.3632,5.365,5.3634,5.3673,5.3769,5.3634,5.3634,5.3657,5.3871,5.3895,5.3913,5.3749,5.3752,5.3754,5.3868,0,5.3431,5.3529,5.3514,5.3607,5.365,5.3612,5.3659,5.3676,5.3675,5.371,5.3708,5.3747,5.3703,5.3714,5.3751,5.3749,5.3811,5.3741,5.3787,5.3789,5.3782,5.3933,5.3959,5.4066,5.3883,5.3885,5.3887,0,5.3582,5.3612,5.3709,5.3723,5.374,5.3784,5.3814,5.3849,5.3867,5.3863,5.3883,5.386,5.3913,5.3857,5.3928,5.388,5.3898,5.3901,5.3904,5.3906,5.3843,5.3937,5.41,5.4116,5.391,5.3908,5.3907,0,5.3689,5.3753,5.382,5.3833,5.3851,5.3882,5.389,5.3905,5.3927,5.3953,5.3967,5.3999,5.4016,5.404,5.4026,5.3986,5.4099,5.4041,5.4095,5.4095,5.4118,5.4117,5.4285,5.4134,5.4134,5.4133,5.4133,0,5.382,5.3881,5.3868,5.3908,5.3974,5.3956,5.4021,5.4025,5.4038,5.4077,5.4046,5.4083,5.4062,5.4097,5.4086,5.4145,5.4153,5.415,5.4146,5.4152,5.4152,5.4162,5.4153,5.4138,5.4137,5.4136,5.4135,0,5.395,5.3944,5.4013,5.4025,5.4029,5.4077,5.4086,5.4123,5.4119,5.4169,5.4179,5.4173,5.4213,5.4201,5.4243,5.4235,5.431,5.4297,5.4304,5.43,5.4354,5.4348,5.4532,5.4555,5.4391,5.4393,5.4394,0,5.4034,5.408,5.4096,5.4121,5.4132,5.4172,5.4195,5.4178,5.4202,5.4226,5.4259,5.4296,5.4324,5.4388,5.4387,5.4418,5.4404,5.4467,5.4409,5.4413,5.4403,5.4399,5.4403,5.4478,5.448,5.4481,5.4483,0,5.4182,5.4176,5.4211,5.4244,5.4273,5.4298,5.432,5.4341,5.4326,5.4354,5.4395,5.4417,5.446,5.4496,5.4525,5.4531,5.4504,5.4501,5.4515,5.452,5.4521,5.4519,5.4334,5.4497,5.4495,5.4494,5.4493,5.4493,5.4289,5.4327,5.4345,5.4384,5.4399,5.442,5.4455,5.4457,5.4491,5.4525,5.4513,5.4559,5.4574,5.461,5.462,5.4654,5.463,5.465,5.4655,5.466,5.4665,5.4518,5.466,5.4659,5.4659,5.4658,5.4658,0,5.4433,5.4443,5.4479,5.4511,5.4542,5.4516,5.4538,5.4565,5.4606,5.4623,5.4652,5.4697,5.4732,5.4733,5.4765,5.4792,5.478,5.4801,5.4797,5.4799,5.4686,5.467,5.481,5.481,5.481,5.481,5.481,5.481,5.4512,5.4574,5.4571,5.464,5.4649,5.4695,5.4709,5.4728,5.4742,5.4794,5.4823,5.4825,5.4835,5.4867,5.4897,5.4897,5.4909,5.4934,5.4928,5.4822,5.4807,5.4793,5.4777,5.4937,5.4937,5.5038,5.5039,5.5039]}]]